| time (UTC) | temp F | wind direction | speed knots | gust knots | rain 1hr in | rain 24hr in | rain mn in | humidity % | barometer mb |
| 20260906114013 | 70 | 317 | 0.0 | 1.7 | 0.00 | 0.50 | 0.01 | 96 | 1012.0 |
| 20260906113510 | 70 | 360 | 0.0 | 1.7 | 0.00 | 0.50 | 0.01 | 96 | 1012.0 |
| 20260906113025 | 70 | 347 | 0.0 | 1.7 | 0.00 | 0.50 | 0.01 | 96 | 1011.8 |
| 20260906112515 | 70 | 11 | 0.0 | 0.9 | 0.00 | 0.50 | 0.01 | 95 | 1011.7 |
| 20260906112015 | 70 | 5 | 0.0 | 0.0 | 0.00 | 0.50 | 0.01 | 95 | 1011.6 |
| 20260906111530 | 69 | 5 | 0.0 | 0.0 | 0.00 | 0.50 | 0.01 | 95 | 1011.6 |
| 20260906111015 | 69 | 5 | 0.0 | 1.7 | 0.00 | 0.50 | 0.01 | 95 | 1011.7 |
| 20260906110518 | 69 | 5 | 0.0 | 1.7 | 0.00 | 0.50 | 0.01 | 95 | 1011.6 |
| 20260906110033 | 69 | 5 | 0.0 | 1.7 | 0.00 | 0.50 | 0.01 | 95 | 1011.6 |
| 20260906105506 | 69 | 5 | 0.0 | 1.7 | 0.00 | 0.50 | 0.01 | 95 | 1011.6 |
| 20260906105009 | 69 | 5 | 0.0 | 1.7 | 0.00 | 0.50 | 0.01 | 95 | 1011.7 |
| 20260906104532 | 69 | 5 | 0.0 | 0.0 | 0.00 | 0.50 | 0.01 | 95 | 1011.6 |
| 20260906104010 | 69 | 5 | 0.0 | 0.0 | 0.00 | 0.50 | 0.01 | 95 | 1011.5 |
| 20260906103512 | 69 | 5 | 0.0 | 0.0 | 0.00 | 0.50 | 0.01 | 95 | 1011.4 |
| 20260906103024 | 69 | 5 | 0.0 | 0.9 | 0.00 | 0.50 | 0.01 | 95 | 1011.4 |
| 20260906102513 | 69 | 5 | 0.0 | 1.7 | 0.00 | 0.50 | 0.01 | 95 | 1011.3 |
| 20260906102014 | 69 | 183 | 0.0 | 1.7 | 0.00 | 0.50 | 0.01 | 95 | 1011.3 |
| 20260906101534 | 69 | 183 | 0.0 | 1.7 | 0.00 | 0.50 | 0.01 | 95 | 1011.2 |
| 20260906101015 | 69 | 183 | 0.0 | 0.0 | 0.00 | 0.50 | 0.01 | 95 | 1011.1 |
| 20260906100505 | 69 | 183 | 0.0 | 0.0 | 0.00 | 0.50 | 0.01 | 95 | 1011.0 |
| 20260906100009 | 69 | 183 | 0.0 | 0.0 | 0.00 | 0.50 | 0.01 | 95 | 1010.9 |
| 20260906095506 | 69 | 183 | 0.0 | 0.0 | 0.00 | 0.50 | 0.01 | 95 | 1010.8 |
| 20260906095004 | 69 | 183 | 0.0 | 0.0 | 0.00 | 0.50 | 0.01 | 95 | 1010.8 |
| 20260906094534 | 69 | 183 | 0.0 | 0.0 | 0.00 | 0.50 | 0.01 | 95 | 1010.8 |
| 20260906094009 | 69 | 183 | 0.0 | 0.0 | 0.00 | 0.50 | 0.01 | 95 | 1010.8 |
| 20260906093513 | 69 | 183 | 0.0 | 0.0 | 0.00 | 0.50 | 0.01 | 95 | 1010.8 |
| 20260906093033 | 69 | 183 | 0.0 | 0.0 | 0.00 | 0.50 | 0.01 | 95 | 1010.7 |
| 20260906092513 | 70 | 183 | 0.0 | 0.0 | 0.01 | 0.50 | 0.01 | 95 | 1010.7 |
| 20260906092013 | 70 | 183 | 0.0 | 0.0 | 0.01 | 0.50 | 0.01 | 95 | 1010.7 |
| 20260906091528 | 70 | 183 | 0.0 | 0.0 | 0.01 | 0.50 | 0.01 | 95 | 1010.6 |
| 20260906091014 | 69 | 183 | 0.0 | 0.0 | 0.01 | 0.50 | 0.01 | 95 | 1010.4 |
| 20260906090516 | 69 | 183 | 0.0 | 0.0 | 0.01 | 0.50 | 0.01 | 95 | 1010.4 |
| 20260906090034 | 69 | 183 | 0.0 | 0.0 | 0.01 | 0.50 | 0.01 | 95 | 1010.3 |
| 20260906085509 | 69 | 183 | 0.0 | 0.0 | 0.01 | 0.50 | 0.01 | 95 | 1010.4 |
| 20260906085007 | 69 | 183 | 0.0 | 0.0 | 0.01 | 0.50 | 0.01 | 95 | 1010.4 |
| 20260906084517 | 69 | 183 | 0.0 | 0.0 | 0.01 | 0.50 | 0.01 | 95 | 1010.4 |
| 20260906084010 | 69 | 183 | 0.0 | 0.0 | 0.01 | 0.50 | 0.01 | 95 | 1010.4 |
| 20260906083509 | 69 | 183 | 0.0 | 0.0 | 0.01 | 0.50 | 0.01 | 95 | 1010.5 |
| 20260906083019 | 69 | 183 | 0.0 | 0.0 | 0.01 | 0.50 | 0.01 | 95 | 1010.5 |
| 20260906082511 | 69 | 183 | 0.0 | 0.0 | 0.00 | 0.49 | 0.00 | 95 | 1010.4 |
| 20260906082012 | 70 | 183 | 0.0 | 0.0 | 0.00 | 0.49 | 0.00 | 95 | 1010.6 |
| 20260906081530 | 70 | 183 | 0.0 | 0.0 | 0.00 | 0.49 | 0.00 | 95 | 1010.6 |
| 20260906081012 | 69 | 183 | 0.0 | 0.0 | 0.00 | 0.49 | 0.00 | 95 | 1010.7 |
| 20260906080514 | 69 | 183 | 0.0 | 0.0 | 0.00 | 0.49 | 0.00 | 95 | 1010.7 |
| 20260906080034 | 69 | 183 | 0.0 | 0.0 | 0.00 | 0.49 | 0.00 | 95 | 1010.6 |
| 20260906075515 | 70 | 183 | 0.0 | 0.0 | 0.00 | 0.49 | 0.00 | 95 | 1010.6 |
| 20260906075016 | 70 | 183 | 0.0 | 0.0 | 0.00 | 0.49 | 0.00 | 95 | 1010.7 |
| 20260906074534 | 70 | 183 | 0.0 | 0.0 | 0.00 | 0.49 | 0.00 | 95 | 1010.7 |
| 20260906074004 | 69 | 183 | 0.0 | 0.0 | 0.00 | 0.49 | 0.00 | 95 | 1010.7 |
| 20260906073507 | 69 | 183 | 0.0 | 0.0 | 0.00 | 0.49 | 0.00 | 95 | 1010.7 |
| 20260906073015 | 70 | 183 | 0.0 | 0.0 | 0.00 | 0.49 | 0.00 | 95 | 1010.7 |
| 20260906072509 | 69 | 183 | 0.0 | 0.0 | 0.00 | 0.49 | 0.00 | 95 | 1010.9 |
| 20260906072011 | 69 | 183 | 0.0 | 0.0 | 0.00 | 0.49 | 0.00 | 95 | 1010.9 |
| 20260906071523 | 69 | 183 | 0.0 | 0.0 | 0.00 | 0.49 | 0.00 | 95 | 1010.8 |
| 20260906071012 | 69 | 183 | 0.0 | 0.0 | 0.00 | 0.49 | 0.00 | 95 | 1010.8 |
| 20260906070515 | 69 | 183 | 0.0 | 0.0 | 0.00 | 0.49 | 0.00 | 94 | 1010.7 |
| 20260906070028 | 70 | 183 | 0.0 | 0.0 | 0.00 | 0.49 | 0.00 | 95 | 1010.7 |
| 20260906065516 | 70 | 183 | 0.0 | 0.0 | 0.00 | 0.49 | 0.00 | 95 | 1010.7 |
| 20260906065015 | 70 | 183 | 0.0 | 0.0 | 0.00 | 0.49 | 0.00 | 95 | 1010.7 |
| 20260906064529 | 70 | 183 | 0.0 | 0.0 | 0.00 | 0.49 | 0.00 | 94 | 1010.8 |
| 20260906064017 | 70 | 183 | 0.0 | 0.0 | 0.00 | 0.49 | 0.00 | 95 | 1010.8 |
| 20260906063516 | 69 | 183 | 0.0 | 0.0 | 0.00 | 0.49 | 0.00 | 94 | 1010.9 |
| 20260906063035 | 70 | 183 | 0.0 | 0.0 | 0.00 | 0.49 | 0.00 | 94 | 1010.9 |
| 20260906062507 | 70 | 183 | 0.0 | 0.0 | 0.00 | 0.49 | 0.00 | 94 | 1011.0 |
| 20260906062009 | 70 | 183 | 0.0 | 1.7 | 0.00 | 0.49 | 0.00 | 94 | 1011.0 |
| 20260906061522 | 70 | 183 | 0.0 | 1.7 | 0.00 | 0.49 | 0.00 | 94 | 1010.9 |
| 20260906061011 | 70 | 179 | 0.0 | 1.7 | 0.00 | 0.49 | 0.00 | 95 | 1010.8 |
| 20260906060512 | 70 | 181 | 0.0 | 1.7 | 0.00 | 0.49 | 0.00 | 95 | 1010.9 |
| 20260906060033 | 70 | 172 | 0.0 | 1.7 | 0.00 | 0.49 | 0.00 | 95 | 1011.0 |
| 20260906055515 | 70 | 47 | 0.0 | 0.0 | 0.00 | 0.49 | 0.00 | 95 | 1011.1 |
| 20260906055015 | 70 | 47 | 0.0 | 0.0 | 0.00 | 0.49 | 0.00 | 95 | 1011.2 |
| 20260906054532 | 70 | 47 | 0.0 | 0.0 | 0.00 | 0.49 | 0.00 | 95 | 1011.1 |
| 20260906054014 | 70 | 47 | 0.0 | 0.0 | 0.00 | 0.49 | 0.00 | 95 | 1011.2 |
| 20260906053513 | 70 | 47 | 0.0 | 0.0 | 0.00 | 0.49 | 0.00 | 95 | 1011.2 |
| 20260906053032 | 70 | 47 | 0.0 | 1.7 | 0.00 | 0.49 | 0.00 | 95 | 1011.3 |
| 20260906052517 | 70 | 47 | 0.0 | 1.7 | 0.00 | 0.49 | 0.00 | 95 | 1011.2 |
| 20260906052021 | 70 | 155 | 0.0 | 1.7 | 0.00 | 0.49 | 0.00 | 95 | 1011.3 |
| 20260906051518 | 70 | 155 | 0.0 | 1.7 | 0.00 | 0.49 | 0.00 | 95 | 1011.3 |
| 20260906051008 | 70 | 155 | 0.0 | 1.7 | 0.00 | 0.49 | 0.00 | 95 | 1011.3 |
| 20260906050511 | 71 | 155 | 0.0 | 1.7 | 0.00 | 0.49 | 0.00 | 95 | 1011.4 |
| 20260906050027 | 70 | 154 | 0.0 | 1.7 | 0.00 | 0.49 | 0.00 | 95 | 1011.4 |
| 20260906045511 | 70 | 58 | 0.0 | 0.0 | 0.00 | 0.49 | 0.00 | 95 | 1011.5 |
| 20260906045015 | 71 | 58 | 0.0 | 1.7 | 0.00 | 0.49 | 0.00 | 95 | 1011.5 |
| 20260906044529 | 70 | 58 | 0.0 | 1.7 | 0.00 | 0.49 | 0.00 | 95 | 1011.6 |
| 20260906044016 | 70 | 58 | 0.0 | 1.7 | 0.00 | 0.49 | 0.00 | 95 | 1011.5 |
| 20260906043516 | 70 | 58 | 0.0 | 1.7 | 0.00 | 0.49 | 0.00 | 95 | 1011.5 |
| 20260906043033 | 70 | 58 | 0.0 | 0.9 | 0.00 | 0.49 | 0.00 | 95 | 1011.6 |
| 20260906042516 | 70 | 58 | 0.0 | 0.0 | 0.00 | 0.49 | 0.00 | 95 | 1011.7 |
| 20260906042015 | 70 | 58 | 0.0 | 0.9 | 0.00 | 0.49 | 0.00 | 95 | 1011.6 |
| 20260906041533 | 70 | 58 | 0.0 | 0.9 | 0.00 | 0.49 | 0.00 | 95 | 1011.6 |
| 20260906041017 | 70 | 58 | 0.0 | 0.0 | 0.00 | 0.49 | 0.00 | 95 | 1011.5 |
| 20260906040519 | 71 | 58 | 0.0 | 0.0 | 0.00 | 0.49 | 0.00 | 95 | 1011.5 |
| 20260906040030 | 71 | 58 | 0.0 | 0.0 | 0.00 | 0.49 | 0.00 | 95 | 1011.5 |
| 20260906035511 | 71 | 58 | 0.0 | 0.0 | 0.00 | 0.49 | 0.49 | 95 | 1011.5 |
| 20260906035012 | 71 | 58 | 0.0 | 0.0 | 0.00 | 0.49 | 0.49 | 95 | 1011.6 |
| 20260906034506 | 71 | 58 | 0.0 | 0.0 | 0.00 | 0.49 | 0.49 | 95 | 1011.6 |
| 20260906034004 | 70 | 58 | 0.0 | 0.0 | 0.00 | 0.49 | 0.49 | 94 | 1011.4 |
| 20260906033503 | 70 | 58 | 0.0 | 0.0 | 0.00 | 0.49 | 0.49 | 94 | 1011.4 |
| 20260906033021 | 71 | 58 | 0.0 | 0.0 | 0.00 | 0.49 | 0.49 | 94 | 1011.5 |
| 20260906032504 | 71 | 58 | 0.0 | 0.0 | 0.00 | 0.49 | 0.49 | 94 | 1011.6 |
| 20260906032005 | 71 | 58 | 0.0 | 0.0 | 0.00 | 0.49 | 0.49 | 94 | 1011.7 |
| 20260906031511 | 71 | 58 | 0.0 | 0.0 | 0.00 | 0.49 | 0.49 | 95 | 1011.6 |
| 20260906031004 | 71 | 58 | 0.0 | 0.0 | 0.00 | 0.49 | 0.49 | 94 | 1011.7 |
| 20260906030508 | 71 | 58 | 0.0 | 0.0 | 0.00 | 0.49 | 0.49 | 94 | 1011.7 |
| 20260906030020 | 71 | 58 | 0.0 | 0.0 | 0.00 | 0.49 | 0.49 | 94 | 1011.9 |
| 20260906025509 | 71 | 360 | 0.0 | 0.0 | 0.00 | 0.49 | 0.49 | 94 | 1012.0 |
| 20260906025010 | 71 | 360 | 0.0 | 0.0 | 0.00 | 0.49 | 0.49 | 94 | 1011.9 |
| 20260906024527 | 71 | 360 | 0.0 | 0.0 | 0.00 | 0.49 | 0.49 | 94 | 1011.9 |
| 20260906024012 | 71 | 360 | 0.0 | 0.0 | 0.00 | 0.49 | 0.49 | 94 | 1011.8 |
| 20260906023504 | 71 | 360 | 0.0 | 0.0 | 0.00 | 0.49 | 0.49 | 94 | 1011.7 |
| 20260906023004 | 71 | 360 | 0.0 | 0.0 | 0.00 | 0.49 | 0.49 | 94 | 1011.8 |
| 20260906022504 | 71 | 360 | 0.0 | 1.7 | 0.00 | 0.49 | 0.49 | 94 | 1011.8 |
| 20260906022004 | 71 | 360 | 0.0 | 1.7 | 0.00 | 0.49 | 0.49 | 94 | 1011.8 |
| 20260906021512 | 71 | 35 | 0.0 | 1.7 | 0.00 | 0.49 | 0.49 | 94 | 1011.8 |
| 20260906021005 | 71 | 76 | 0.0 | 1.7 | 0.00 | 0.49 | 0.49 | 94 | 1011.9 |
| 20260906020506 | 72 | 10 | 0.0 | 0.0 | 0.00 | 0.49 | 0.49 | 94 | 1011.8 |
| 20260906020018 | 72 | 10 | 0.0 | 0.0 | 0.00 | 0.49 | 0.49 | 94 | 1011.8 |
| 20260906015508 | 72 | 10 | 0.0 | 0.0 | 0.00 | 0.49 | 0.49 | 94 | 1011.7 |
| 20260906015010 | 71 | 10 | 0.0 | 0.0 | 0.00 | 0.49 | 0.49 | 94 | 1011.6 |
| 20260906014537 | 71 | 10 | 0.0 | 1.7 | 0.00 | 0.49 | 0.49 | 94 | 1011.6 |
| 20260906014013 | 72 | 10 | 0.0 | 1.7 | 0.00 | 0.49 | 0.49 | 94 | 1011.6 |
| 20260906013511 | 71 | 10 | 0.0 | 0.0 | 0.00 | 0.49 | 0.49 | 94 | 1011.6 |
| 20260906013032 | 71 | 10 | 0.0 | 0.0 | 0.00 | 0.49 | 0.49 | 94 | 1011.5 |
| 20260906012513 | 71 | 5 | 0.0 | 0.0 | 0.00 | 0.49 | 0.49 | 94 | 1011.4 |
| 20260906012003 | 71 | 5 | 0.0 | 1.7 | 0.00 | 0.49 | 0.49 | 94 | 1011.4 |
| 20260906011507 | 71 | 65 | 0.0 | 1.7 | 0.00 | 0.49 | 0.49 | 94 | 1011.6 |
| 20260906011004 | 72 | 171 | 0.0 | 1.7 | 0.00 | 0.49 | 0.49 | 93 | 1011.5 |
| 20260906010505 | 72 | 171 | 0.0 | 1.7 | 0.00 | 0.49 | 0.49 | 93 | 1011.4 |
| 20260906010012 | 72 | 171 | 0.0 | 1.7 | 0.00 | 0.49 | 0.49 | 93 | 1011.3 |
| 20260906005505 | 72 | 171 | 0.0 | 0.0 | 0.00 | 0.49 | 0.49 | 93 | 1011.3 |
| 20260906005013 | 72 | 171 | 0.0 | 0.0 | 0.00 | 0.49 | 0.49 | 93 | 1011.4 |
| 20260906004534 | 72 | 171 | 0.0 | 1.7 | 0.00 | 0.49 | 0.49 | 93 | 1011.3 |
| 20260906004010 | 72 | 171 | 0.0 | 1.7 | 0.00 | 0.49 | 0.49 | 93 | 1011.4 |
| 20260906003510 | 72 | 171 | 0.0 | 0.0 | 0.00 | 0.49 | 0.49 | 93 | 1011.3 |
| 20260906003043 | 72 | 171 | 0.0 | 0.0 | 0.00 | 0.49 | 0.49 | 92 | 1011.4 |
| 20260906002511 | 72 | 171 | 0.0 | 0.0 | 0.00 | 0.49 | 0.49 | 93 | 1011.4 |
| 20260906002012 | 72 | 171 | 0.0 | 0.0 | 0.00 | 0.49 | 0.49 | 92 | 1011.1 |
| 20260906001533 | 73 | 171 | 0.0 | 0.0 | 0.00 | 0.49 | 0.49 | 92 | 1011.1 |
| 20260906001004 | 72 | 171 | 0.0 | 1.7 | 0.00 | 0.49 | 0.49 | 92 | 1011.1 |
| 20260906000505 | 72 | 171 | 0.0 | 1.7 | 0.00 | 0.49 | 0.49 | 92 | 1011.1 |
| 20260906000011 | 72 | 198 | 0.0 | 1.7 | 0.00 | 0.49 | 0.49 | 92 | 1011.1 |
| 20260905235505 | 72 | 198 | 0.0 | 1.7 | 0.00 | 0.49 | 0.49 | 92 | 1010.8 |
| 20260905235007 | 72 | 198 | 0.0 | 1.7 | 0.00 | 0.49 | 0.49 | 92 | 1011.0 |
| 20260905234516 | 73 | 5 | 0.0 | 2.6 | 0.00 | 0.49 | 0.49 | 92 | 1010.9 |
| 20260905234009 | 73 | 190 | 0.0 | 2.6 | 0.00 | 0.49 | 0.49 | 92 | 1010.7 |
| 20260905233508 | 73 | 173 | 0.9 | 2.6 | 0.00 | 0.49 | 0.49 | 92 | 1010.3 |
| 20260905233025 | 73 | 193 | 0.0 | 2.6 | 0.00 | 0.49 | 0.49 | 92 | 1010.3 |
| 20260905232511 | 73 | 196 | 0.0 | 2.6 | 0.00 | 0.49 | 0.49 | 92 | 1010.3 |
| 20260905232013 | 73 | 180 | 0.9 | 2.6 | 0.00 | 0.49 | 0.49 | 92 | 1010.2 |
| 20260905231535 | 73 | 162 | 0.0 | 0.9 | 0.00 | 0.49 | 0.49 | 93 | 1010.0 |
| 20260905231013 | 72 | 207 | 0.0 | 0.9 | 0.00 | 0.49 | 0.49 | 93 | 1009.8 |
| 20260905230513 | 72 | 207 | 0.0 | 0.9 | 0.00 | 0.49 | 0.49 | 93 | 1009.7 |
| 20260905230034 | 72 | 207 | 0.0 | 0.0 | 0.00 | 0.49 | 0.49 | 93 | 1009.7 |
| 20260905225504 | 73 | 207 | 0.0 | 0.0 | 0.00 | 0.49 | 0.49 | 93 | 1009.9 |
| 20260905225010 | 73 | 207 | 0.0 | 1.7 | 0.00 | 0.49 | 0.49 | 93 | 1009.6 |
| 20260905224525 | 72 | 207 | 0.0 | 1.7 | 0.00 | 0.49 | 0.49 | 92 | 1009.8 |
| 20260905224009 | 73 | 132 | 0.0 | 1.7 | 0.00 | 0.49 | 0.49 | 91 | 1009.7 |
| 20260905223507 | 73 | 165 | 0.0 | 1.7 | 0.00 | 0.49 | 0.49 | 91 | 1009.9 |
| 20260905223020 | 73 | 151 | 0.0 | 1.7 | 0.00 | 0.49 | 0.49 | 93 | 1009.8 |
| 20260905222510 | 72 | 151 | 0.0 | 1.7 | 0.00 | 0.49 | 0.49 | 93 | 1009.9 |
| 20260905222011 | 71 | 121 | 0.0 | 1.7 | 0.00 | 0.49 | 0.49 | 92 | 1010.0 |
| 20260905221534 | 71 | 352 | 0.0 | 1.7 | 0.00 | 0.49 | 0.49 | 92 | 1009.8 |
| 20260905221012 | 71 | 352 | 0.0 | 1.7 | 0.01 | 0.49 | 0.49 | 93 | 1009.6 |
| 20260905220516 | 71 | 352 | 0.0 | 1.7 | 0.13 | 0.49 | 0.49 | 92 | 1009.0 |
| 20260905220031 | 71 | 317 | 0.0 | 1.7 | 0.37 | 0.49 | 0.49 | 93 | 1008.6 |
| 20260905215517 | 72 | 314 | 0.0 | 1.7 | 0.49 | 0.49 | 0.49 | 92 | 1008.5 |
| 20260905215014 | 72 | 317 | 0.0 | 0.9 | 0.49 | 0.49 | 0.49 | 92 | 1009.0 |
| 20260905214512 | 71 | 311 | 0.0 | 1.7 | 0.49 | 0.49 | 0.49 | 91 | 1009.6 |
| 20260905214006 | 71 | 320 | 0.0 | 3.5 | 0.49 | 0.49 | 0.49 | 91 | 1009.7 |
| 20260905213507 | 71 | 85 | 0.9 | 7.0 | 0.49 | 0.49 | 0.49 | 90 | 1009.8 |
| 20260905213033 | 71 | 90 | 1.7 | 8.7 | 0.49 | 0.49 | 0.49 | 91 | 1009.3 |
| 20260905212011 | 71 | 310 | 1.7 | 14.8 | 0.49 | 0.49 | 0.49 | 90 | 1010.3 |
| 20260905211539 | 71 | 281 | 0.9 | 14.8 | 0.49 | 0.49 | 0.49 | 89 | 1010.4 |
| 20260905211015 | 72 | 342 | 4.3 | 16.5 | 0.48 | 0.48 | 0.48 | 88 | 1011.1 |
| 20260905210511 | 73 | 343 | 4.3 | 16.5 | 0.36 | 0.36 | 0.36 | 86 | 1011.9 |
| 20260905210028 | 76 | 352 | 3.5 | 18.2 | 0.12 | 0.12 | 0.12 | 77 | 1012.1 |
| 20260905205517 | 84 | 290 | 4.3 | 18.2 | 0.00 | 0.00 | 0.00 | 65 | 1012.0 |
| 20260905205017 | 92 | 341 | 4.3 | 11.3 | 0.00 | 0.00 | 0.00 | 59 | 1011.5 |
| 20260905204531 | 93 | 322 | 0.0 | 1.7 | 0.00 | 0.00 | 0.00 | 59 | 1009.4 |
| 20260905204014 | 93 | 322 | 0.0 | 1.7 | 0.00 | 0.00 | 0.00 | 59 | 1009.3 |
| 20260905203516 | 93 | 322 | 0.0 | 1.7 | 0.00 | 0.00 | 0.00 | 58 | 1009.2 |
| 20260905203016 | 93 | 117 | 0.0 | 1.7 | 0.00 | 0.00 | 0.00 | 56 | 1009.2 |
| 20260905202507 | 93 | 325 | 0.0 | 1.7 | 0.00 | 0.00 | 0.00 | 58 | 1008.9 |
| 20260905202013 | 93 | 323 | 0.0 | 1.7 | 0.00 | 0.00 | 0.00 | 57 | 1008.9 |
| 20260905201528 | 95 | 323 | 0.0 | 1.7 | 0.00 | 0.00 | 0.00 | 55 | 1008.9 |
| 20260905201013 | 95 | 296 | 0.0 | 1.7 | 0.00 | 0.00 | 0.00 | 55 | 1008.9 |
| 20260905200511 | 95 | 299 | 0.0 | 1.7 | 0.00 | 0.00 | 0.00 | 55 | 1008.9 |
| 20260905200027 | 96 | 344 | 0.0 | 1.7 | 0.00 | 0.00 | 0.00 | 54 | 1008.9 |
| 20260905195502 | 95 | 262 | 0.0 | 1.7 | 0.00 | 0.00 | 0.00 | 53 | 1009.0 |
| 20260905195004 | 95 | 211 | 0.0 | 1.7 | 0.00 | 0.00 | 0.00 | 54 | 1009.1 |
| 20260905194503 | 96 | 302 | 0.0 | 1.7 | 0.00 | 0.00 | 0.00 | 55 | 1009.2 |
| 20260905194002 | 96 | 263 | 0.9 | 2.6 | 0.00 | 0.00 | 0.00 | 53 | 1009.3 |
| 20260905193505 | 96 | 258 | 0.0 | 2.6 | 0.00 | 0.00 | 0.00 | 53 | 1009.3 |
| 20260905193003 | 96 | 238 | 0.9 | 2.6 | 0.00 | 0.00 | 0.00 | 53 | 1009.1 |
| 20260905192503 | 96 | 275 | 0.0 | 1.7 | 0.00 | 0.00 | 0.00 | 52 | 1009.3 |
| 20260905192004 | 97 | 180 | 0.0 | 1.7 | 0.00 | 0.00 | 0.00 | 52 | 1009.3 |
| 20260905191504 | 96 | 313 | 0.0 | 1.7 | 0.00 | 0.00 | 0.00 | 54 | 1009.4 |
| 20260905191002 | 96 | 263 | 0.0 | 1.7 | 0.00 | 0.00 | 0.00 | 53 | 1009.5 |
| 20260905190502 | 96 | 326 | 0.0 | 3.5 | 0.00 | 0.00 | 0.00 | 55 | 1009.5 |
| 20260905190010 | 96 | 306 | 0.9 | 3.5 | 0.00 | 0.00 | 0.00 | 55 | 1009.5 |
| 20260905185501 | 96 | 254 | 0.9 | 1.7 | 0.00 | 0.00 | 0.00 | 52 | 1009.4 |
| 20260905185004 | 96 | 202 | 0.0 | 1.7 | 0.00 | 0.00 | 0.00 | 55 | 1009.6 |
| 20260905184504 | 95 | 240 | 0.0 | 1.7 | 0.00 | 0.00 | 0.00 | 55 | 1009.8 |
| 20260905184003 | 96 | 276 | 0.9 | 2.6 | 0.00 | 0.00 | 0.00 | 53 | 1009.9 |
| 20260905183503 | 96 | 163 | 0.9 | 2.6 | 0.00 | 0.00 | 0.00 | 55 | 1009.9 |
| 20260905183004 | 96 | 167 | 0.0 | 1.7 | 0.00 | 0.00 | 0.00 | 55 | 1010.1 |
| 20260905182503 | 96 | 191 | 0.0 | 2.6 | 0.00 | 0.00 | 0.00 | 55 | 1010.1 |
| 20260905182003 | 96 | 99 | 0.9 | 2.6 | 0.00 | 0.00 | 0.00 | 54 | 1010.1 |
| 20260905181503 | 95 | 315 | 0.9 | 2.6 | 0.00 | 0.00 | 0.00 | 58 | 1010.2 |
| 20260905181003 | 95 | 246 | 0.9 | 2.6 | 0.00 | 0.00 | 0.00 | 56 | 1010.3 |
| 20260905180503 | 95 | 9 | 0.9 | 2.6 | 0.00 | 0.00 | 0.00 | 55 | 1010.5 |
| 20260905180004 | 95 | 333 | 0.0 | 1.7 | 0.00 | 0.00 | 0.00 | 57 | 1010.7 |
| 20260905175503 | 95 | 315 | 0.0 | 1.7 | 0.00 | 0.00 | 0.00 | 56 | 1010.8 |
| 20260905175002 | 94 | 294 | 0.0 | 4.3 | 0.00 | 0.00 | 0.00 | 56 | 1011.0 |
| 20260905174508 | 95 | 291 | 0.9 | 4.3 | 0.00 | 0.00 | 0.00 | 58 | 1011.1 |
| 20260905174002 | 94 | 263 | 0.0 | 1.7 | 0.00 | 0.00 | 0.00 | 59 | 1011.1 |
| 20260905173503 | 94 | 165 | 0.0 | 4.3 | 0.00 | 0.00 | 0.00 | 58 | 1011.2 |
| 20260905173003 | 95 | 309 | 0.0 | 4.3 | 0.00 | 0.00 | 0.00 | 59 | 1011.3 |
| 20260905172504 | 94 | 263 | 0.0 | 1.7 | 0.00 | 0.00 | 0.00 | 59 | 1011.4 |
| 20260905172007 | 94 | 263 | 0.0 | 1.7 | 0.00 | 0.00 | 0.00 | 59 | 1011.4 |
| 20260905171518 | 94 | 254 | 0.0 | 1.7 | 0.00 | 0.00 | 0.00 | 59 | 1011.4 |
| 20260905171007 | 94 | 241 | 0.0 | 1.7 | 0.00 | 0.00 | 0.00 | 59 | 1011.5 |
| 20260905170504 | 94 | 195 | 0.0 | 1.7 | 0.00 | 0.00 | 0.00 | 60 | 1011.4 |
| 20260905170003 | 93 | 248 | 0.0 | 1.7 | 0.00 | 0.00 | 0.00 | 61 | 1011.5 |
| 20260905165502 | 94 | 233 | 0.9 | 3.5 | 0.00 | 0.00 | 0.00 | 60 | 1011.7 |
| 20260905165003 | 94 | 273 | 0.9 | 3.5 | 0.00 | 0.00 | 0.00 | 60 | 1011.7 |
| 20260905164506 | 93 | 44 | 0.9 | 1.7 | 0.00 | 0.00 | 0.00 | 61 | 1011.7 |
| 20260905164004 | 92 | 284 | 0.0 | 1.7 | 0.00 | 0.00 | 0.00 | 62 | 1011.8 |
| 20260905163506 | 92 | 290 | 0.0 | 1.7 | 0.00 | 0.00 | 0.00 | 61 | 1012.0 |
| 20260905163005 | 92 | 254 | 0.0 | 1.7 | 0.00 | 0.00 | 0.00 | 61 | 1012.0 |
| 20260905162503 | 92 | 338 | 0.0 | 4.3 | 0.00 | 0.00 | 0.00 | 61 | 1012.0 |
| 20260905162003 | 93 | 267 | 0.9 | 4.3 | 0.00 | 0.00 | 0.00 | 60 | 1012.1 |
| 20260905161503 | 93 | 324 | 0.0 | 1.7 | 0.00 | 0.00 | 0.00 | 62 | 1012.1 |
| 20260905161004 | 93 | 200 | 0.0 | 2.6 | 0.00 | 0.00 | 0.00 | 63 | 1012.1 |
| 20260905160502 | 92 | 211 | 0.9 | 1.7 | 0.00 | 0.00 | 0.00 | 63 | 1012.1 |
| 20260905160012 | 91 | 235 | 0.0 | 1.7 | 0.00 | 0.00 | 0.00 | 64 | 1012.2 |
| 20260905155504 | 92 | 241 | 0.0 | 1.7 | 0.00 | 0.00 | 0.00 | 65 | 1012.2 |
| 20260905155003 | 92 | 237 | 0.0 | 2.6 | 0.00 | 0.00 | 0.00 | 65 | 1012.3 |
| 20260905154505 | 91 | 215 | 0.9 | 2.6 | 0.00 | 0.00 | 0.00 | 65 | 1012.4 |
| 20260905154003 | 91 | 234 | 0.0 | 1.7 | 0.00 | 0.00 | 0.00 | 66 | 1012.4 |
| 20260905153503 | 92 | 221 | 0.0 | 1.7 | 0.00 | 0.00 | 0.00 | 66 | 1012.6 |
| 20260905153006 | 91 | 161 | 0.0 | 1.7 | 0.00 | 0.00 | 0.00 | 66 | 1012.6 |
| 20260905152504 | 91 | 246 | 0.0 | 1.7 | 0.00 | 0.00 | 0.00 | 67 | 1012.7 |
| 20260905152003 | 91 | 229 | 0.9 | 1.7 | 0.00 | 0.00 | 0.00 | 67 | 1012.6 |
| 20260905151526 | 90 | 182 | 0.9 | 1.7 | 0.00 | 0.00 | 0.00 | 68 | 1012.6 |
| 20260905151003 | 90 | 215 | 0.0 | 2.6 | 0.00 | 0.00 | 0.00 | 70 | 1012.6 |
| 20260905150503 | 89 | 250 | 0.0 | 2.6 | 0.00 | 0.00 | 0.00 | 71 | 1012.6 |
| 20260905150010 | 89 | 274 | 0.0 | 1.7 | 0.00 | 0.00 | 0.00 | 71 | 1012.7 |
| 20260905145503 | 89 | 226 | 0.0 | 1.7 | 0.00 | 0.00 | 0.00 | 71 | 1012.7 |
| 20260905145003 | 88 | 200 | 0.0 | 2.6 | 0.00 | 0.00 | 0.00 | 72 | 1012.6 |
| 20260905144504 | 89 | 248 | 0.9 | 2.6 | 0.00 | 0.00 | 0.00 | 71 | 1012.7 |
| 20260905144002 | 88 | 240 | 0.0 | 1.7 | 0.00 | 0.00 | 0.00 | 72 | 1012.7 |
| 20260905143504 | 88 | 284 | 0.0 | 1.7 | 0.00 | 0.00 | 0.00 | 73 | 1012.7 |
| 20260905143006 | 88 | 254 | 0.0 | 1.7 | 0.00 | 0.00 | 0.00 | 73 | 1012.7 |
| 20260905142503 | 87 | 263 | 0.0 | 1.7 | 0.00 | 0.00 | 0.00 | 75 | 1012.8 |
| 20260905142004 | 87 | 259 | 0.0 | 2.6 | 0.00 | 0.00 | 0.00 | 73 | 1012.8 |
| 20260905141505 | 87 | 227 | 0.9 | 2.6 | 0.00 | 0.00 | 0.00 | 75 | 1012.7 |
| 20260905141003 | 86 | 227 | 0.0 | 1.7 | 0.00 | 0.00 | 0.00 | 75 | 1012.9 |
| 20260905140506 | 86 | 105 | 0.0 | 1.7 | 0.00 | 0.00 | 0.00 | 75 | 1012.8 |
| 20260905140006 | 86 | 246 | 0.0 | 2.6 | 0.00 | 0.00 | 0.00 | 75 | 1012.8 |
| 20260905135504 | 86 | 39 | 0.9 | 2.6 | 0.00 | 0.00 | 0.00 | 76 | 1012.8 |
| 20260905135004 | 85 | 250 | 0.0 | 2.6 | 0.00 | 0.00 | 0.00 | 77 | 1012.8 |
| 20260905134506 | 85 | 249 | 0.0 | 1.7 | 0.00 | 0.00 | 0.00 | 77 | 1012.8 |
| 20260905134003 | 85 | 255 | 0.0 | 1.7 | 0.00 | 0.00 | 0.00 | 78 | 1012.8 |
| 20260905133503 | 84 | 228 | 0.0 | 1.7 | 0.00 | 0.00 | 0.00 | 79 | 1012.8 |
| 20260905133007 | 84 | 123 | 0.0 | 1.7 | 0.00 | 0.00 | 0.00 | 80 | 1012.9 |
| 20260905132503 | 84 | 343 | 0.0 | 1.7 | 0.00 | 0.00 | 0.00 | 80 | 1012.9 |
| 20260905132003 | 83 | 169 | 0.0 | 1.7 | 0.00 | 0.00 | 0.00 | 80 | 1012.9 |
| 20260905131514 | 83 | 259 | 0.0 | 1.7 | 0.00 | 0.00 | 0.00 | 80 | 1012.9 |
| 20260905131004 | 83 | 275 | 0.0 | 1.7 | 0.00 | 0.00 | 0.00 | 82 | 1013.1 |
| 20260905130504 | 83 | 242 | 0.0 | 1.7 | 0.00 | 0.00 | 0.00 | 82 | 1013.1 |
| 20260905130006 | 83 | 298 | 0.0 | 1.7 | 0.00 | 0.00 | 0.00 | 83 | 1013.0 |
| 20260905125508 | 82 | 149 | 0.0 | 1.7 | 0.00 | 0.00 | 0.00 | 84 | 1013.2 |
| 20260905125005 | 82 | 272 | 0.0 | 1.7 | 0.00 | 0.00 | 0.00 | 84 | 1013.2 |
| 20260905124507 | 81 | 102 | 0.0 | 1.7 | 0.00 | 0.00 | 0.00 | 85 | 1013.2 |
| 20260905124011 | 81 | 279 | 0.0 | 1.7 | 0.00 | 0.00 | 0.00 | 85 | 1013.1 |
| 20260905123503 | 81 | 32 | 0.0 | 1.7 | 0.00 | 0.00 | 0.00 | 86 | 1013.1 |
| 20260905123007 | 80 | 44 | 0.0 | 1.7 | 0.00 | 0.00 | 0.00 | 87 | 1013.2 |
| 20260905122503 | 80 | 294 | 0.0 | 1.7 | 0.00 | 0.00 | 0.00 | 87 | 1013.2 |
| 20260905122004 | 80 | 287 | 0.0 | 1.7 | 0.00 | 0.00 | 0.00 | 88 | 1013.1 |
| 20260905121508 | 79 | 188 | 0.0 | 1.7 | 0.00 | 0.00 | 0.00 | 88 | 1013.2 |
| 20260905121005 | 79 | 292 | 0.0 | 1.7 | 0.00 | 0.00 | 0.00 | 88 | 1013.2 |
| 20260905120503 | 79 | 360 | 0.0 | 1.7 | 0.00 | 0.00 | 0.00 | 90 | 1013.2 |
| 20260905120008 | 78 | 326 | 0.0 | 1.7 | 0.00 | 0.00 | 0.00 | 90 | 1013.1 |
| 20260905115505 | 78 | 285 | 0.0 | 1.7 | 0.00 | 0.00 | 0.00 | 90 | 1013.1 |
| 20260905115004 | 78 | 232 | 0.0 | 1.7 | 0.00 | 0.00 | 0.00 | 91 | 1013.1 |
| 20260905114515 | 77 | 236 | 0.0 | 1.7 | 0.00 | 0.00 | 0.00 | 91 | 1012.9 |